DMSP 5D-2 F13 DEB

Satellite information

Favourite Embed

Satellite Type and Status

DEBRISIN ORBIT

Key statistics

Satellite DMSP 5D-2 F13 DEB at a glance.

Uptime

11062

Days in orbit

Revolutions

≈ 14.5

Per day

Orbit

SSO

Sun Synchronous Orbit

Inclination

98.6

Latest

Satellite identification and parameters

Extended collection of information and parameters for DMSP 5D-2 F13 DEB.

Object identification

Identified? True

Debris? True

Object name: DMSP 5D-2 F13 DEB

International designator: 1995-015GX

Object number (NORAD): 42281

Object ID (CCSDS): 42281

Country: UNITED STATES OF AMERICA (US)

Current information (Y/N): Y

RCS size: SMALL

Orbital parameters

Period: 98.981 minutes

Inclination: 98.5656 deg

SMA: 7088.092 km

Apoapsis: 731.424 km

Periapsis: 688.489 km

RAAN: 239.0351 deg

Eccentricy: 0.0030287

Argument of periapsis: 34.0366 deg

Mean anomaly: 326.2765 deg

Mean motion: 14.54818375 rev/day

Mean motion (dot): 0.00007386 rev/day2

B* drag term: 0.0017211 1/REarth

Two-line elements (TLE)

Creation date: July 5, 2025, 10:16 p.m.

Reference frame: TEME

Reference center: EARTH

Epoch: July 5, 2025, 2:06 p.m. UTC

TLE line 0: 0 DMSP 5D-2 F13 DEB

TLE line 1: 1 42281U 95015GX 25186.58764100 .00007386 00000-0 17211-2 0 9998

TLE line 2: 2 42281 98.5656 239.0351 0030287 34.0366 326.2765 14.54818375533269

Live tracking on map

Real-time ground track for satellite DMSP 5D-2 F13 DEB.

In-orbit conjunctions

A list of the most updated potential collisions computed for object DMSP 5D-2 F13 DEB.

Target Orbit TCA Probability of collision Miss distance Type
PICOSAT 1&2 (TETHERED) SSO 2025-03-14 02:29:23 0.0001641951 236.0 (m) PAYLOAD
CZ-2C R/B SSO 2025-03-02 03:06:33 0.0001178247 296.0 (m) ROCKET BODY

Associated space launch

Military meteorological satellite

DMSP 5D-2 F13 DEB was lifted into orbit during the mission ‘Atlas E | DMSP-5D2 F13’, on board a Atlas E space rocket.

The launch took place on March 24, 1995, 2:05 p.m. from Space Launch Complex 3W.

For more information about the launch, click the button.

Launch to space Atlas E | DMSP-5D2 F13
Atlas E | DMSP-5D2 F13

Agency: N/A

Status: Launch Successful

Launch date: March 24, 1995, 2:05 p.m. UTC

Rocket: Atlas E

Launch pad: Space Launch Complex 3W

Location: Vandenberg SFB, CA, USA

...

Latest news about this satellite

There are no fresh news available about this satellite. Check back as we update our databases every day.


Newsletter sign-up

Weekly statistics, charts and insights to help you stay on top of the space industry.